Location: ?ern� Novina
(50.6762°N, 14.8696°E)
Time: 11:02:00
(UTC+00:00)

Aureole 2 Rocket - Pass Details

Date: 03 March 2021
Orbit: 275 x 342 km, 73.9° (Epoch: 16 April)

Event Time Altitude Azimuth Distance (km) Brightness Sun altitude
Rises 17:28:36 0° 339° (NNW) 1,996 6.0 -7.6°
Reaches altitude 10° 17:30:34 10° 345° (NNW) 1,153 4.7 -7.9°
Maximum altitude 17:33:00 49° 63° (ENE) 379 1.7 -8.3°
Drops below altitude 10° 17:35:21 10° 141° (SE) 1,114 4.0 -8.7°
Enters shadow 17:36:25 - 145° (SE) 1,567 4.8 -8.9°
